Vorticity
-15 -2 5 -2 5 1 4 4 3 6 7 8 10 10 7 8 6 5 2 3 0 1 2 3 3 3 4 3 1 1 1 -6 4 4 7 2 11 14 10 6 -4 3 6 7 4
3 33 28 1 -15 -1 4 7 3 5 4 6 8 11 10 9 7 6 6 3 2 1 3 4 2 2 4 5 2 2 3 -13 8 5 -8 4 2 7 15 8 6 8 8 6 5
3 1 8 19 22 13 -3 3 -1 7 2 4 6 8 9 9 10 5 6 4 2 2 1 3 4 3 5 4 3 1 0 -1 15 1 -1 1 2 4 8 11 7 3 18 12 7
7 8 4 2 24 12 2 -11 6 3 6 2 4 5 7 9 6 6 8 5 3 2 2 2 4 4 4 4 4 4 2 2 2 1 1 2 2 4 2 4 9 5 -16 19 19
4 4 6 9 2 12 26 6 -14 -9 5 5 4 3 5 6 10 8 8 9 5 3 2 2 1 3 3 4 2 3 5 3 2 2 2 1 2 3 4 5 4 14 3 7 24
3 2 3 1 6 6 9 12 37 4 -8 -1 4 4 5 4 7 5 9 8 7 5 2 3 2 2 1 1 3 3 3 3 4 4 2 2 3 1 7 3 3 1 1 6 7
8 5 4 5 2 4 3 5 16 43 6 -3 1 6 8 -2 7 7 7 9 8 7 6 3 2 2 2 1 3 2 2 2 4 4 4 4 4 4 3 -0 4 3 -4 3 8
13 13 11 8 4 5 3 4 2 3 35 -10 -6 3 5 2 5 4 4 8 7 7 8 5 4 4 3 3 2 2 2 2 3 3 4 5 -0 11 5 17 15 1 0 -9 -0
17 13 13 10 12 9 7 5 4 5 2 24 -1 6 -3 1 3 6 3 4 6 5 8 8 6 5 4 3 3 2 3 3 3 3 -3 18 4 8 3 11 -5 2 0 -3 12
22 20 15 14 15 10 9 10 7 5 3 3 7 27 10 -1 2 2 8 3 4 5 5 6 7 7 7 5 4 3 3 4 5 4 -2 4 12 14 6 2 -13 0 1 1 2
5 8 17 20 20 17 17 11 9 12 4 4 2 5 7 25 20 -2 3 5 6 4 3 4 6 2 5 6 4 6 5 6 2 11 27 9 6 6 -2 3 3 -1 2 -0 6
8 8 7 7 6 7 13 20 19 19 11 5 7 4 5 4 12 28 -10 -1 9 -1 2 5 12 11 4 3 6 6 6 5 3 7 -3 -8 -3 9 0 1 2 3 -5 4 0
12 11 10 9 9 9 9 9 10 12 21 17 14 8 5 8 3 5 12 0 -1 13 15 -1 5 2 2 5 6 5 7 3 5 6 6 2 2 -3 -2 1 3 1 3 -1 12
7 9 10 10 9 10 10 10 10 10 13 18 16 27 14 15 8 5 3 3 2 3 6 12 8 10 2 4 2 4 3 4 5 1 11 2 14 0 4 9 6 8 10 17 -2
15 16 16 13 11 8 7 7 8 9 13 12 9 19 18 19 31 9 14 12 4 1 10 3 5 29 -2 5 2 5 2 4 6 2 11 4 5 10 -3 -2 0 -1 8 -2 -7
7 5 6 8 12 12 11 11 12 12 12 10 9 9 8 10 17 20 20 23 19 6 1 1 -1 5 10 15 -0 -8 8 7 9 11 4 2 8 6 1 -0 6 6 -5 6 25
6 5 6 7 7 7 8 10 9 13 13 17 18 14 14 14 6 7 11 14 16 19 17 20 7 8 1 -1 9 12 5 6 8 -2 3 -1 10 -6 4 4 8 19 18 -2 -5
5 5 7 8 9 9 7 7 6 5 10 4 6 7 14 13 15 13 8 2 11 16 15 17 16 7 10 9 6 6 22 11 -8 1 11 -1 -13 -4 9 3 3 -4 9 6 3
6 5 6 7 9 8 7 7 8 8 6 8 9 8 7 8 10 10 16 22 7 6 10 23 20 22 7 9 13 11 4 -7 14 12 19 7 1 4 5 13 1 5 -3 -3 -0
7 6 5 8 7 8 6 6 8 10 11 10 10 11 12 11 11 11 4 14 21 17 27 20 39 15 23 14 18 6 15 12 6 8 0 -6 24 2 -5 -15 7 5 4 8 6
9 8 10 9 9 8 5 8 9 7 10 11 12 7 7 9 13 12 2 17 23 26 6 22 23 23 7 17 -8 20 24 6 14 15 5 5 11 -4 33 38 13 11 36 2 12
7 8 13 7 6 7 8 9 7 2 5 4 7 10 10 9 7 9 10 13 7 18 26 10 4 50 8 19 25 -4 21 21 20 9 -17 -20 16 10 -6 50 17 26 18 15 9
9 8 7 7 5 8 11 9 10 8 9 12 9 7 6 5 8 12 12 20 20 16 3 18 26 20 38 10 2 11 -11 -8 1 18 15 23 27 -24 14 -5 -20 -8 -1 3 -16
8 6 6 8 10 8 10 11 11 16 14 16 17 13 11 11 16 12 8 11 27 14 -3 -16 5 11 8 33 24 10 33 -3 -24 29 2 2 44 -9 -13 -12 -4 13 46 -10 -11
6 7 8 9 12 12 10 11 10 11 14 8 10 9 18 21 15 9 13 17 13 30 21 -14 12 -27 -4 15 -8 38 28 35 -12 -13 10 1 12 40 16 7 6 5 15 3 4
5 6 10 11 10 9 10 16 12 16 14 14 17 10 9 9 4 11 8 10 15 6 18 32 55 24 12 5 10 14 -7 10 25 12 44 35 0 10 -13 22 9 9 13 -1 9
11 9 9 9 13 8 16 15 16 15 10 9 11 22 14 23 39 40 21 19 9 1 25 8 -6 22 10 9 23 25 9 21 7 25 -26 -6 -6 27 6 -7 4 3 8 15 3
Height
5778 5782 5785 5789 5795 5799 5802 5807 5811 5813 5817 5821 5825 5829 5829 5834 5837 5841 5845 5852 5856 5858 5861 5863 5865 5866 5866 5870 5871 5872 5872 5873 5879 5879 5878 5873 5873 5873 5873 5871 5869 5870 5867 5865 5867
5767 5771 5775 5779 5786 5789 5795 5799 5802 5806 5809 5814 5817 5822 5823 5828 5831 5836 5840 5846 5849 5852 5855 5858 5860 5862 5863 5865 5867 5868 5869 5867 5872 5871 5872 5871 5871 5870 5870 5869 5867 5865 5863 5865 5863
5757 5762 5766 5771 5775 5781 5786 5790 5794 5799 5801 5805 5810 5814 5815 5822 5824 5827 5833 5839 5842 5846 5849 5852 5854 5857 5859 5859 5862 5863 5864 5863 5865 5867 5869 5869 5869 5869 5868 5867 5865 5861 5862 5862 5858
5747 5751 5755 5760 5763 5769 5775 5779 5784 5789 5794 5798 5802 5805 5809 5813 5816 5818 5826 5830 5836 5840 5843 5845 5848 5851 5853 5855 5856 5858 5860 5859 5862 5862 5865 5866 5866 5865 5865 5866 5864 5862 5855 5857 5857
5736 5742 5746 5750 5754 5759 5764 5770 5774 5779 5785 5789 5793 5797 5803 5805 5811 5813 5820 5824 5827 5832 5836 5839 5841 5844 5846 5848 5849 5850 5854 5855 5856 5858 5860 5861 5862 5863 5862 5863 5862 5860 5856 5854 5854
5726 5731 5735 5742 5744 5749 5754 5758 5762 5768 5774 5779 5783 5787 5793 5800 5802 5804 5813 5816 5818 5824 5828 5832 5835 5835 5838 5841 5842 5845 5845 5849 5850 5852 5853 5856 5857 5857 5859 5859 5859 5857 5856 5853 5850
5714 5719 5725 5730 5734 5739 5744 5748 5753 5757 5762 5768 5773 5777 5784 5796 5796 5799 5803 5808 5811 5815 5820 5823 5826 5827 5834 5834 5836 5837 5838 5841 5844 5847 5846 5848 5850 5852 5853 5853 5854 5853 5853 5852 5850
5701 5708 5714 5719 5724 5728 5734 5739 5741 5746 5753 5757 5762 5767 5776 5783 5786 5793 5795 5799 5803 5806 5811 5813 5816 5821 5824 5828 5826 5832 5832 5832 5841 5841 5841 5841 5841 5846 5847 5843 5847 5847 5847 5847 5847
5690 5696 5702 5708 5712 5716 5721 5727 5731 5736 5740 5746 5752 5757 5767 5773 5779 5781 5787 5791 5793 5797 5802 5804 5806 5810 5815 5818 5820 5823 5822 5827 5834 5836 5834 5831 5832 5840 5839 5835 5837 5840 5842 5841 5838
5679 5685 5690 5696 5700 5705 5709 5715 5720 5725 5729 5733 5738 5747 5756 5762 5766 5773 5776 5780 5783 5786 5791 5794 5795 5801 5807 5807 5808 5815 5818 5822 5824 5831 5828 5826 5823 5833 5832 5830 5831 5835 5835 5835 5834
5672 5676 5681 5685 5688 5692 5698 5702 5709 5713 5718 5723 5727 5735 5738 5745 5757 5767 5767 5768 5771 5774 5782 5780 5781 5791 5804 5802 5804 5806 5809 5812 5817 5822 5823 5821 5818 5818 5826 5823 5820 5826 5830 5830 5830
5664 5668 5674 5676 5679 5682 5686 5690 5696 5699 5706 5712 5716 5725 5730 5733 5744 5751 5754 5754 5757 5765 5769 5766 5771 5793 5796 5788 5793 5795 5799 5804 5807 5811 5814 5813 5811 5812 5813 5819 5818 5816 5821 5823 5823
5653 5657 5662 5664 5669 5673 5677 5682 5683 5686 5691 5704 5708 5713 5724 5722 5729 5738 5739 5739 5741 5746 5750 5751 5772 5782 5781 5777 5782 5785 5788 5795 5795 5800 5801 5801 5800 5801 5804 5805 5809 5811 5815 5817 5817
5644 5648 5653 5657 5662 5662 5667 5671 5671 5676 5681 5693 5697 5704 5707 5712 5713 5725 5721 5723 5725 5736 5742 5739 5759 5761 5764 5762 5773 5773 5784 5783 5784 5784 5784 5797 5788 5793 5796 5795 5797 5802 5807 5811 5811
5637 5641 5644 5648 5652 5655 5660 5660 5663 5670 5672 5680 5688 5693 5694 5702 5703 5705 5705 5705 5718 5725 5721 5726 5738 5748 5749 5754 5764 5763 5772 5769 5771 5769 5772 5779 5777 5781 5786 5787 5790 5792 5792 5801 5801
5628 5632 5635 5639 5642 5646 5649 5652 5657 5663 5670 5672 5672 5677 5680 5687 5688 5684 5688 5693 5701 5704 5705 5713 5726 5730 5738 5744 5748 5754 5754 5757 5756 5755 5750 5763 5767 5764 5776 5782 5784 5786 5788 5788 5790
5619 5623 5626 5629 5633 5637 5639 5643 5648 5655 5661 5660 5658 5660 5663 5669 5673 5675 5671 5675 5684 5687 5694 5709 5711 5723 5724 5728 5734 5738 5739 5738 5736 5735 5731 5756 5753 5756 5774 5777 5775 5775 5779 5776 5780
5611 5614 5617 5621 5623 5627 5630 5636 5642 5648 5649 5644 5644 5646 5651 5655 5659 5663 5661 5665 5668 5673 5679 5684 5691 5707 5715 5712 5724 5728 5726 5723 5720 5721 5727 5742 5736 5747 5765 5768 5769 5766 5767 5765 5766
5601 5605 5608 5610 5613 5616 5620 5626 5633 5635 5637 5636 5636 5637 5641 5645 5648 5647 5648 5651 5659 5663 5664 5669 5670 5694 5696 5702 5708 5710 5707 5713 5706 5708 5712 5718 5725 5734 5746 5751 5757 5756 5756 5755 5758
5591 5594 5599 5600 5602 5605 5610 5618 5618 5621 5622 5623 5625 5626 5630 5637 5635 5638 5639 5644 5652 5650 5651 5658 5651 5673 5679 5681 5685 5689 5704 5701 5691 5689 5690 5699 5712 5720 5736 5739 5744 5748 5746 5745 5748
5580 5584 5588 5588 5590 5593 5600 5606 5608 5609 5610 5612 5613 5615 5619 5624 5622 5625 5627 5635 5639 5639 5643 5644 5644 5655 5659 5658 5668 5677 5676 5682 5677 5679 5678 5686 5696 5721 5722 5730 5735 5738 5738 5734 5732
5569 5574 5576 5576 5579 5583 5587 5592 5596 5597 5597 5598 5598 5601 5605 5608 5607 5610 5614 5619 5626 5630 5628 5632 5626 5627 5639 5652 5656 5657 5661 5669 5661 5667 5670 5673 5681 5713 5713 5715 5721 5719 5719 5723 5721
5558 5562 5563 5563 5566 5572 5576 5578 5580 5582 5584 5584 5587 5589 5592 5594 5592 5596 5598 5607 5611 5614 5615 5619 5619 5619 5628 5631 5637 5638 5647 5651 5648 5650 5648 5653 5670 5711 5707 5709 5708 5709 5708 5709 5710
5547 5549 5550 5552 5557 5559 5562 5566 5568 5570 5570 5569 5574 5573 5579 5579 5580 5580 5584 5592 5598 5600 5605 5602 5600 5604 5610 5615 5620 5619 5630 5637 5639 5633 5639 5639 5658 5684 5692 5691 5693 5699 5698 5694 5699
5535 5537 5539 5542 5546 5548 5548 5552 5552 5555 5556 5559 5561 5564 5565 5565 5568 5570 5577 5583 5588 5590 5593 5594 5587 5592 5591 5596 5600 5605 5612 5617 5624 5626 5625 5636 5642 5665 5676 5678 5679 5684 5684 5685 5688
5523 5526 5528 5533 5531 5531 5534 5538 5538 5544 5546 5550 5546 5553 5551 5552 5559 5560 5564 5567 5569 5573 5575 5578 5574 5576 5576 5584 5587 5586 5592 5602 5607 5612 5618 5623 5628 5650 5665 5659 5664 5668 5669 5667 5672
5514 5515 5514 5520 5517 5516 5521 5527 5528 5531 5534 5536 5537 5537 5538 5545 5547 5546 5548 5551 5553 5555 5559 5563 5564 5563 5564 5572 5569 5568 5584 5588 5595 5602 5606 5606 5621 5644 5641 5645 5651 5653 5657 5657 5654